Location: Ar Ranvel
(48.3000°N, 4.8833°W)
Time: 06:19:24
(UTC+00:00)

FALCON 9 DEB - Pass Details

Date: 25 October 2021
Orbit: 417 x 427 km, 53.0° (Epoch: 30 November)

Event Time Altitude Azimuth Distance (km) Brightness Sun altitude
Rises 19:08:24 0° 214° (SW) 2,387 7.3 -20.0°
Reaches altitude 10° 19:10:39 10° 204° (SSW) 1,524 6.1 -20.3°
Enters shadow 19:12:12 21° 185° (S) 1,020 5.0 -20.6°
